Weather History for KDGW - May, 2013

Change the Weather History Date:

Thursday, May 23, 2013

  Actual Average Record
Temperature  
Mean Temperature 55 °F 56 °F  
Max Temperature 66 °F 70 °F 85 °F (2003)
Min Temperature 44 °F 41 °F 31 °F (2007)
Degree Days  
Heating Degree Days 10 10  
Month to date heating degree days 257 307  
Since 1 July heating degree days 7023 7264  
Cooling Degree Days 0 0  
Month to date cooling degree days 13 0  
Year to date cooling degree days 13 0  
Growing Degree Days 4 (Base 50)    
Moisture  
Dew Point 45 °F    
Average Humidity 72    
Maximum Humidity 92    
Minimum Humidity 52    
Precipitation  
Precipitation T in 0.08 in 0.64 in (2015)
Month to date precipitation 1.36 1.85  
Year to date precipitation 4.18 5.00  
Sea Level Pressure  
Sea Level Pressure 29.92 in    
Wind  
Wind Speed 31 mph (SE)    
Max Wind Speed 44 mph    
Max Gust Speed 54 mph    
Visibility 10 miles    
Events      
T = Trace of Precipitation, MM = Missing Value Source: NWS Daily Summary

Daily Weather History Graph

Daily Weather History Graph

Search for Another Location

Airport or City:

Trip Planner

Search our weather history database for the weather conditions in past years. The results will help you decide how hot, cold, wet, or windy it might be!

Date:

Astronomy

May. 23, 2013 Rise Set
Actual Time 5:31 AM MDT 8:25 PM MDT
Civil Twilight 4:57 AM MDT 8:59 PM MDT
Nautical Twilight 4:15 AM MDT 9:41 PM MDT
Astronomical Twilight 3:26 AM MDT 10:31 PM MDT
Moon 6:59 PM MDT (5/23) 4:20 AM MDT (5/23)
Length of Visible Light 16h 01m
Length of Day
14h 54m
Waxing Gibbous, 97% of the Moon is Illuminated
May 23
Waxing Gibbous
May 24
Full
May 31
Last Quarter
Jun 8
New
Jun 16
First Quarter

Hourly Weather History & Observations

Time (MDT) Temp. Windchill Dew Point Humidity Pressure Visibility Wind Dir Wind Speed Gust Speed Precip Events Conditions
12:15 AM 46.4 °F 38.7 °F 42.8 °F 87% 30.09 in 10.0 mi ESE 20.7 mph 29.9 mph N/A   Overcast
12:53 AM 46.0 °F 37.8 °F 42.1 °F 86% 30.01 in 10.0 mi ESE 23.0 mph 28.8 mph N/A   Overcast
1:53 AM 46.9 °F - 43.0 °F 86% 29.99 in 10.0 mi SE 19.6 mph 27.6 mph N/A   Overcast
2:53 AM 44.1 °F 34.2 °F 42.1 °F 93% 29.96 in 8.0 mi SE 28.8 mph 39.1 mph 0.00 in   Overcast
3:53 AM 45.0 °F 35.8 °F 42.1 °F 90% 29.96 in 10.0 mi SE 26.5 mph 36.8 mph N/A   Overcast
4:53 AM 45.0 °F 34.9 °F 42.1 °F 90% 29.94 in 10.0 mi SE 32.2 mph 38.0 mph N/A   Overcast
5:53 AM 45.0 °F 36.2 °F 43.0 °F 93% 29.94 in 3.0 mi SE 24.2 mph 38.0 mph N/A   Overcast
6:53 AM 45.0 °F 36.0 °F 43.0 °F 93% 29.96 in 4.0 mi SE 25.3 mph 39.1 mph N/A   Overcast
7:53 AM 46.0 °F 36.5 °F 43.0 °F 89% 29.96 in 8.0 mi SE 31.1 mph 41.4 mph N/A   Overcast
8:53 AM 48.0 °F - 44.1 °F 86% 29.97 in 10.0 mi SSE 31.1 mph 42.6 mph N/A   Overcast
9:53 AM 48.9 °F - 43.0 °F 80% 29.96 in 10.0 mi SE 36.8 mph 44.9 mph N/A   Overcast
10:29 AM 50.0 °F - 42.8 °F 76% 30.02 in 10.0 mi SE 34.5 mph 41.4 mph N/A   Overcast
10:53 AM 51.1 °F - 44.1 °F 77% 29.96 in 10.0 mi SE 28.8 mph 43.7 mph N/A   Overcast
11:53 AM 53.1 °F - 45.0 °F 74% 29.94 in 10.0 mi SE 34.5 mph 43.7 mph N/A   Overcast
12:45 PM 57.2 °F - 46.4 °F 67% 29.99 in 10.0 mi SE 35.7 mph 43.7 mph N/A   Overcast
12:53 PM 57.0 °F - 46.0 °F 67% 29.92 in 10.0 mi SE 35.7 mph 46.0 mph N/A   Overcast
1:53 PM 59.0 °F - 46.0 °F 62% 29.89 in 10.0 mi SE 36.8 mph 50.6 mph N/A   Scattered Clouds
2:50 PM 62.6 °F - 46.4 °F 55% 29.96 in 10.0 mi SE 31.1 mph 49.5 mph N/A   Mostly Cloudy
2:53 PM 62.1 °F - 46.9 °F 58% 29.88 in 10.0 mi SE 34.5 mph 43.7 mph N/A   Mostly Cloudy
3:42 PM 62.6 °F - 46.4 °F 55% 29.95 in 10.0 mi SSE 38.0 mph 48.3 mph N/A   Scattered Clouds
3:53 PM 64.0 °F - 46.9 °F 54% 29.86 in 10.0 mi SE 33.4 mph 46.0 mph N/A   Mostly Cloudy
4:13 PM 62.6 °F - 46.4 °F 55% 29.95 in 10.0 mi SE 29.9 mph 44.9 mph N/A   Scattered Clouds
4:53 PM 64.9 °F - 46.9 °F 52% 29.83 in 10.0 mi SSE 31.1 mph 44.9 mph N/A   Clear
5:53 PM 64.9 °F - 46.9 °F 52% 29.82 in 10.0 mi SE 38.0 mph 49.5 mph N/A   Clear
6:53 PM 63.0 °F - 46.9 °F 56% 29.82 in 10.0 mi SE 34.5 mph 49.5 mph N/A   Clear
7:53 PM 60.1 °F - 46.9 °F 62% 29.83 in 10.0 mi SSE 41.4 mph 48.3 mph N/A   Scattered Clouds
8:53 PM 57.0 °F - 46.9 °F 69% 29.84 in 10.0 mi SSE 28.8 mph 49.5 mph N/A   Partly Cloudy
9:13 PM 57.2 °F - 46.4 °F 67% 29.93 in 10.0 mi SSE 33.4 mph 40.3 mph N/A   Mostly Cloudy
9:53 PM 55.9 °F - 46.9 °F 72% 29.84 in 10.0 mi SSE 32.2 mph 39.1 mph N/A   Mostly Cloudy
10:53 PM 55.9 °F - 46.9 °F 72% 29.83 in 10.0 mi SSE 23.0 mph 33.4 mph N/A   Overcast
11:24 PM 55.4 °F - 46.4 °F 72% 29.91 in 10.0 mi SSE 25.3 mph 35.7 mph N/A   Scattered Clouds
11:53 PM 55.0 °F - 46.9 °F 74% 29.81 in 10.0 mi SSE 23.0 mph 32.2 mph N/A   Scattered Clouds